Location: Akdamlar
(36.8729°N, 30.5187°E)
Time: 19:51:37
(UTC+00:00)

Cosmos 2285 Rocket - Pass Details

Date: 18 September 2020
Orbit: 970 x 1000 km, 74.0° (Epoch: 26 October)

Event Time Altitude Azimuth Distance (km) Brightness Sun altitude
Rises 17:44:01 0° 183° (S) 3,646 6.8 -21.1°
Reaches altitude 10° 17:46:35 10° 179° (S) 2,703 6.1 -21.6°
Maximum altitude 17:52:40 55° 103° (ESE) 1,158 4.0 -22.8°
Drops below altitude 10° 17:58:48 10° 27° (NNE) 2,733 6.3 -23.9°
Sets 18:01:24 0° 23° (NNE) 3,688 7.0 -24.4°
